Bryce, UT

5:14 PM MST on February 27, 2017 (GMT -0700)
Bryce Canyon

Weather History for KBCE - February, 2013

Change the Weather History Date:

Monday, February 25, 2013

  Actual Average Record
Temperature  
Mean Temperature 14 °F -  
Max Temperature 37 °F 41 °F 60 °F (1986)
Min Temperature -8 °F 14 °F -9 °F (2017)
Degree Days  
Heating Degree Days 50    
Moisture  
Dew Point 2 °F    
Average Humidity 63    
Maximum Humidity 88    
Minimum Humidity 26    
Precipitation  
Precipitation 0.00 in - - ()
Sea Level Pressure  
Sea Level Pressure 30.17 in    
Wind  
Wind Speed 8 mph (West)    
Max Wind Speed 16 mph    
Max Gust Speed 29 mph    
Visibility 10 miles    
Events Snow    
Averages and records for this station are not official NWS values.
T = Trace of Precipitation, MM = Missing Value Source: NWS Daily Summary

Daily Weather History Graph

Daily Weather History Graph

Search for Another Location

Airport or City:

Trip Planner

Search our weather history database for the weather conditions in past years. The results will help you decide how hot, cold, wet, or windy it might be!

Date:

Astronomy

Feb. 25, 2013 Rise Set
Actual Time 7:05 AM MST 6:18 PM MST
Civil Twilight 6:38 AM MST 6:45 PM MST
Nautical Twilight 6:08 AM MST 7:15 PM MST
Astronomical Twilight 5:37 AM MST 7:45 PM MST
Moon 6:34 PM MST (2/25) 6:38 AM MST (2/25)
Length of Visible Light 12h 06m
Length of Day
11h 13m
Full, 100% of the Moon is Illuminated
Feb 25
Full
Feb 25
Full
Mar 4
Last Quarter
Mar 11
New
Mar 19
First Quarter

Hourly Weather History & Observations

Time (MST) Temp. Windchill Dew Point Humidity Pressure Visibility Wind Dir Wind Speed Gust Speed Precip Events Conditions
12:53 AM 1.9 °F -14.7 °F -0.9 °F 88% 30.25 in 10.0 mi West 11.5 mph - N/A   Clear
1:53 AM -0.0 °F -14.2 °F -2.9 °F 88% 30.27 in 10.0 mi West 8.1 mph - N/A   Clear
2:53 AM -0.9 °F -11.0 °F -5.1 °F 83% 30.28 in 10.0 mi WNW 4.6 mph - N/A   Clear
3:53 AM -2.9 °F -17.7 °F -6.0 °F 87% 30.27 in 10.0 mi West 8.1 mph - N/A   Clear
4:53 AM -8.0 °F -19.2 °F -11.9 °F 83% 30.32 in 10.0 mi West 4.6 mph - N/A   Clear
5:53 AM -4.0 °F -20.2 °F -8.0 °F 83% 30.32 in 10.0 mi West 9.2 mph - N/A   Clear
6:53 AM -5.1 °F -19.1 °F -9.0 °F 83% 30.35 in 10.0 mi WNW 6.9 mph - N/A   Clear
7:53 AM -2.9 °F -16.5 °F -7.1 °F 82% 30.35 in 10.0 mi West 6.9 mph - N/A   Clear
8:53 AM 7.0 °F - 3.9 °F 87% 30.28 in 10.0 mi Calm Calm - N/A   Clear
9:53 AM 17.1 °F 8.7 °F 7.0 °F 65% 30.23 in 10.0 mi NW 5.8 mph - N/A   Clear
10:53 AM 21.0 °F 14.6 °F 9.0 °F 60% 30.21 in 10.0 mi NE 4.6 mph - N/A   Clear
11:53 AM 26.1 °F 18.4 °F 8.1 °F 47% 30.17 in 10.0 mi North 6.9 mph - N/A   Clear
12:53 PM 28.9 °F - 1.9 °F 32% 30.14 in 10.0 mi Calm Calm - N/A   Clear
1:53 PM 34.0 °F 31.0 °F 8.1 °F 34% 30.10 in 10.0 mi SE 3.5 mph - N/A   Clear
2:53 PM 37.0 °F 34.5 °F 5.0 °F 26% 30.06 in 10.0 mi SSE 3.5 mph - N/A   Clear
3:53 PM 36.0 °F 29.0 °F 10.0 °F 34% 30.06 in 10.0 mi SSE 9.2 mph - N/A   Clear
4:53 PM 34.0 °F 26.0 °F 10.9 °F 38% 30.07 in 10.0 mi SE 10.4 mph - N/A   Mostly Cloudy
5:53 PM 28.9 °F 19.2 °F 9.0 °F 43% 30.06 in 10.0 mi SE 11.5 mph - N/A   Clear
6:53 PM 26.1 °F 18.4 °F 5.0 °F 41% 30.07 in 10.0 mi South 6.9 mph - N/A   Clear
8:53 PM 17.1 °F 6.6 °F 5.0 °F 59% 30.05 in 10.0 mi West 8.1 mph - N/A   Clear
9:53 PM 10.0 °F -1.9 °F 1.0 °F 67% 30.04 in 10.0 mi West 8.1 mph - N/A   Clear
10:53 PM 24.1 °F 11.5 °F 8.1 °F 51% 29.94 in 10.0 mi WNW 15.0 mph 28.8 mph N/A   Clear
11:53 PM 21.0 °F 7.1 °F 15.1 °F 78% 29.95 in 3.0 mi WNW 16.1 mph - 0.00 in Snow Light Snow